| time (UTC) | temp F | wind direction | speed MPH | gust MPH | rain 1hr in | rain 24hr in | rain mn in | humidity % | barometer mb |
| 20260505014535 | 48 | 273 | 2.0 | 8.0 | 0.00 | 0.02 | 0.00 | 81 | 1003.5 |
| 20260505013033 | 47 | 260 | 2.0 | 8.0 | 0.00 | 0.02 | 0.00 | 79 | 1003.3 |
| 20260505011534 | 47 | 238 | 0.0 | 5.0 | 0.00 | 0.02 | 0.00 | 78 | 1003.1 |
| 20260505010039 | 48 | 201 | 1.0 | 11.0 | 0.00 | 0.02 | 0.00 | 76 | 1003.0 |
| 20260505004528 | 48 | 205 | 2.0 | 12.0 | 0.00 | 0.02 | 0.00 | 74 | 1003.0 |
| 20260505003029 | 48 | 248 | 4.0 | 9.0 | 0.00 | 0.02 | 0.00 | 73 | 1002.9 |
| 20260505001528 | 48 | 194 | 2.0 | 12.0 | 0.00 | 0.02 | 0.00 | 71 | 1002.7 |
| 20260505000027 | 49 | 127 | 0.0 | 11.0 | 0.00 | 0.02 | 0.00 | 69 | 1002.6 |
| 20260504234524 | 49 | 240 | 4.0 | 11.0 | 0.00 | 0.02 | 0.00 | 66 | 1002.6 |
| 20260504233022 | 49 | 266 | 1.0 | 9.0 | 0.00 | 0.02 | 0.00 | 64 | 1002.6 |
| 20260504231554 | 49 | 212 | 2.0 | 10.0 | 0.00 | 0.02 | 0.00 | 62 | 1002.6 |
| 20260504230111 | 50 | 207 | 3.0 | 15.0 | 0.00 | 0.02 | 0.00 | 60 | 1002.7 |
| 20260504223020 | 50 | 194 | 4.0 | 11.0 | 0.00 | 0.02 | 0.00 | 56 | 1002.6 |
| 20260504221516 | 51 | 213 | 4.0 | 13.0 | 0.00 | 0.02 | 0.00 | 55 | 1002.7 |
| 20260504220014 | 51 | 174 | 2.0 | 9.0 | 0.00 | 0.02 | 0.00 | 54 | 1002.7 |
| 20260504214523 | 51 | 188 | 1.0 | 10.0 | 0.00 | 0.02 | 0.00 | 55 | 1002.7 |
| 20260504213011 | 51 | 206 | 0.0 | 7.0 | 0.00 | 0.02 | 0.00 | 55 | 1002.8 |
| 20260504211508 | 52 | 235 | 5.0 | 11.0 | 0.00 | 0.02 | 0.00 | 53 | 1002.9 |
| 20260504210011 | 52 | 217 | 1.0 | 10.0 | 0.00 | 0.02 | 0.00 | 53 | 1002.9 |
| 20260504204510 | 52 | 233 | 3.0 | 12.0 | 0.00 | 0.02 | 0.00 | 53 | 1003.0 |
| 20260504203006 | 52 | 243 | 4.0 | 10.0 | 0.00 | 0.02 | 0.00 | 52 | 1003.1 |
| 20260504201508 | 52 | 199 | 3.0 | 11.0 | 0.00 | 0.02 | 0.00 | 52 | 1003.2 |
| 20260504200010 | 53 | 210 | 3.0 | 11.0 | 0.00 | 0.02 | 0.00 | 52 | 1003.2 |
| 20260504194506 | 53 | 201 | 0.0 | 8.0 | 0.00 | 0.02 | 0.00 | 53 | 1003.0 |
| 20260504193006 | 53 | 169 | 0.0 | 7.0 | 0.00 | 0.02 | 0.00 | 53 | 1003.0 |
| 20260504191503 | 53 | 173 | 0.0 | 5.0 | 0.00 | 0.02 | 0.00 | 52 | 1003.0 |
| 20260504190002 | 54 | 203 | 1.0 | 5.0 | 0.00 | 0.02 | 0.00 | 51 | 1002.9 |
| 20260504184503 | 54 | 194 | 0.0 | 5.0 | 0.00 | 0.02 | 0.00 | 53 | 1002.8 |
| 20260504183002 | 56 | 195 | 0.0 | 5.0 | 0.00 | 0.02 | 0.00 | 54 | 1002.8 |
| 20260504181604 | 56 | 194 | 0.0 | 8.0 | 0.00 | 0.02 | 0.00 | 54 | 1002.8 |
| 20260504181502 | 56 | 221 | 1.0 | 8.0 | 0.00 | 0.02 | 0.00 | 54 | 1002.7 |
| 20260504180100 | 56 | 173 | 0.0 | 5.0 | 0.00 | 0.02 | 0.00 | 55 | 1002.8 |
| 20260504174559 | 57 | 221 | 0.0 | 3.0 | 0.00 | 0.02 | 0.00 | 57 | 1002.8 |
| 20260504173059 | 56 | 204 | 0.0 | 4.0 | 0.00 | 0.02 | 0.00 | 60 | 1002.8 |
| 20260504171555 | 56 | 229 | 0.0 | 6.0 | 0.00 | 0.02 | 0.00 | 63 | 1002.7 |
| 20260504081547 | 47 | 215 | 0.0 | 3.0 | 0.00 | 0.13 | 0.07 | 97 | 1003.6 |
| 20260504050021 | 0 | 0.0 | 0.0 | 0.00 | 0.11 | 0.05 | 1004.9 | ||
| 20260504044520 | 0 | 0.0 | 0.0 | 0.00 | 0.11 | 0.05 | 1005.0 | ||
| 20260504043016 | 0 | 0.0 | 0.0 | 0.00 | 0.11 | 0.05 | 1005.0 | ||
| 20260504041511 | 0 | 0.0 | 0.0 | 0.00 | 0.11 | 0.05 | 1005.0 | ||
| 20260504040006 | 0 | 0.0 | 0.0 | 0.00 | 0.11 | 0.05 | 1005.2 | ||
| 20260504034502 | 0 | 0.0 | 0.0 | 0.00 | 0.11 | 0.05 | 1005.4 | ||
| 20260504033116 | 0 | 0.0 | 0.0 | 0.00 | 0.11 | 0.05 | 1005.4 | ||
| 20260504031558 | 41 | 132 | 0.0 | 0.0 | 0.00 | 0.13 | 0.05 | 96 | 1005.7 |
| 20260504030104 | 42 | 133 | 0.0 | 0.0 | 0.00 | 0.13 | 0.05 | 96 | 1005.8 |
| 20260504023049 | 42 | 133 | 0.0 | 0.0 | 0.00 | 0.13 | 0.05 | 97 | 1006.2 |
| 20260504021549 | 42 | 132 | 0.0 | 0.0 | 0.00 | 0.16 | 0.05 | 97 | 1006.4 |
| 20260504020052 | 42 | 207 | 0.0 | 1.0 | 0.00 | 0.16 | 0.05 | 97 | 1006.4 |